| time (UTC) | temp F | wind direction | speed MPH | gust MPH | rain 1hr in | rain 24hr in | rain mn in | humidity % | barometer mb |
| 20260506080506 | 46 | 5 | 0.0 | 4.0 | 0.11 | 0.22 | 0.13 | 98 | 1007.3 |
| 20260506073506 | 46 | 19 | 1.0 | 4.0 | 0.05 | 0.15 | 0.06 | 97 | 1007.6 |
| 20260506073026 | 46 | 350 | 1.0 | 4.0 | 0.04 | 0.14 | 0.05 | 97 | 1007.4 |
| 20260506072526 | 46 | 332 | 1.0 | 4.0 | 0.03 | 0.13 | 0.04 | 97 | 1007.3 |
| 20260506072027 | 46 | 22 | 1.0 | 2.0 | 0.02 | 0.12 | 0.03 | 97 | 1007.5 |
| 20260506071505 | 46 | 79 | 0.0 | 2.0 | 0.02 | 0.11 | 0.02 | 97 | 1007.5 |
| 20260506071006 | 46 | 28 | 0.0 | 2.0 | 0.02 | 0.11 | 0.02 | 97 | 1007.5 |
| 20260506070527 | 46 | 30 | 0.0 | 2.0 | 0.01 | 0.11 | 0.02 | 97 | 1007.6 |
| 20260506062506 | 45 | 235 | 1.0 | 4.0 | 0.01 | 0.10 | 0.01 | 95 | 1007.8 |
| 20260506062006 | 45 | 246 | 1.0 | 3.0 | 0.01 | 0.10 | 0.01 | 94 | 1007.8 |
| 20260506061505 | 45 | 262 | 1.0 | 3.0 | 0.01 | 0.10 | 0.01 | 94 | 1007.8 |
| 20260506061006 | 45 | 282 | 0.0 | 3.0 | 0.00 | 0.09 | 0.00 | 94 | 1007.7 |
| 20260506060525 | 45 | 28 | 0.0 | 2.0 | 0.00 | 0.09 | 0.00 | 93 | 1007.8 |
| 20260506051006 | 45 | 354 | 1.0 | 3.0 | 0.00 | 0.09 | 0.00 | 95 | 1008.3 |
| 20260506050505 | 45 | 328 | 1.0 | 3.0 | 0.00 | 0.09 | 0.00 | 96 | 1008.3 |
| 20260506045006 | 44 | 359 | 1.0 | 3.0 | 0.00 | 0.09 | 0.00 | 97 | 1008.4 |
| 20260506044506 | 44 | 358 | 1.0 | 4.0 | 0.00 | 0.09 | 0.00 | 98 | 1008.4 |
| 20260506044005 | 44 | 358 | 0.0 | 4.0 | 0.00 | 0.09 | 0.00 | 98 | 1008.4 |
| 20260506043505 | 44 | 357 | 0.0 | 2.0 | 0.00 | 0.09 | 0.00 | 98 | 1008.6 |
| 20260506043004 | 44 | 2 | 0.0 | 3.0 | 0.00 | 0.09 | 0.00 | 98 | 1008.6 |
| 20260506042504 | 44 | 8 | 0.0 | 3.0 | 0.00 | 0.09 | 0.00 | 98 | 1008.5 |
| 20260506042006 | 44 | 2 | 0.0 | 1.0 | 0.00 | 0.09 | 0.00 | 98 | 1008.6 |
| 20260506041505 | 44 | 11 | 0.0 | 2.0 | 0.00 | 0.09 | 0.00 | 98 | 1008.6 |
| 20260506041004 | 44 | 21 | 0.0 | 2.0 | 0.00 | 0.09 | 0.00 | 98 | 1008.9 |
| 20260506040527 | 44 | 32 | 0.0 | 2.0 | 0.00 | 0.09 | 0.00 | 98 | 1008.8 |
| 20260506040025 | 44 | 36 | 1.0 | 2.0 | 0.00 | 0.09 | 0.00 | 99 | 1008.8 |
| 20260506035504 | 44 | 27 | 1.0 | 2.0 | 0.00 | 0.09 | 0.00 | 99 | 1008.6 |
| 20260506035006 | 44 | 15 | 0.0 | 2.0 | 0.00 | 0.09 | 0.00 | 99 | 1008.8 |
| 20260506034526 | 43 | 12 | 0.0 | 1.0 | 0.00 | 0.09 | 0.00 | 99 | 1008.7 |
| 20260506034004 | 43 | 14 | 0.0 | 2.0 | 0.00 | 0.09 | 0.00 | 99 | 1008.8 |
| 20260506033505 | 43 | 15 | 0.0 | 1.0 | 0.00 | 0.09 | 0.00 | 99 | 1008.8 |
| 20260506033025 | 43 | 0 | 0.0 | 0.0 | 0.00 | 0.09 | 0.00 | 99 | 1008.8 |
| 20260506032504 | 43 | 0 | 0.0 | 0.0 | 0.00 | 0.09 | 0.00 | 99 | 1008.7 |
| 20260506032005 | 43 | 0 | 0.0 | 0.0 | 0.00 | 0.09 | 0.00 | 99 | 1008.7 |
| 20260506031526 | 43 | 0 | 0.0 | 0.0 | 0.00 | 0.09 | 0.00 | 99 | 1008.7 |
| 20260506031005 | 43 | 15 | 0.0 | 1.0 | 0.00 | 0.09 | 0.00 | 99 | 1008.8 |
| 20260506030504 | 43 | 15 | 0.0 | 1.0 | 0.00 | 0.09 | 0.00 | 99 | 1008.5 |
| 20260506030006 | 44 | 15 | 0.0 | 1.0 | 0.00 | 0.09 | 0.00 | 99 | 1008.8 |
| 20260506025506 | 44 | 15 | 0.0 | 1.0 | 0.00 | 0.09 | 0.00 | 99 | 1008.9 |
| 20260506025006 | 44 | 15 | 0.0 | 1.0 | 0.00 | 0.09 | 0.00 | 99 | 1009.1 |
| 20260506024525 | 44 | 15 | 0.0 | 1.0 | 0.00 | 0.09 | 0.00 | 99 | 1009.2 |
| 20260506024005 | 44 | 8 | 0.0 | 1.0 | 0.00 | 0.09 | 0.00 | 99 | 1009.2 |
| 20260506023504 | 44 | 357 | 0.0 | 1.0 | 0.00 | 0.09 | 0.00 | 99 | 1009.3 |
| 20260506023004 | 44 | 357 | 0.0 | 2.0 | 0.00 | 0.09 | 0.00 | 99 | 1009.1 |
| 20260506022505 | 44 | 358 | 0.0 | 2.0 | 0.00 | 0.09 | 0.00 | 99 | 1008.9 |
| 20260506022004 | 44 | 359 | 0.0 | 2.0 | 0.00 | 0.09 | 0.00 | 99 | 1009.1 |
| 20260506021504 | 44 | 353 | 0.0 | 2.0 | 0.00 | 0.09 | 0.00 | 99 | 1009.1 |
| 20260506021005 | 44 | 352 | 0.0 | 2.0 | 0.00 | 0.09 | 0.00 | 99 | 1009.3 |
| 20260506020505 | 44 | 346 | 0.0 | 1.0 | 0.00 | 0.09 | 0.00 | 99 | 1009.2 |
| 20260506020006 | 44 | 346 | 0.0 | 1.0 | 0.00 | 0.09 | 0.00 | 99 | 1009.5 |
| 20260506015504 | 44 | 346 | 0.0 | 1.0 | 0.00 | 0.09 | 0.00 | 99 | 1009.4 |
| 20260506015027 | 44 | 346 | 0.0 | 1.0 | 0.00 | 0.09 | 0.00 | 98 | 1009.4 |
| 20260506014504 | 44 | 346 | 0.0 | 1.0 | 0.00 | 0.09 | 0.00 | 98 | 1009.4 |
| 20260506014004 | 44 | 346 | 0.0 | 1.0 | 0.00 | 0.09 | 0.00 | 98 | 1009.3 |
| 20260506013505 | 44 | 347 | 0.0 | 1.0 | 0.00 | 0.09 | 0.00 | 98 | 1009.3 |
| 20260506013025 | 44 | 347 | 0.0 | 1.0 | 0.00 | 0.09 | 0.00 | 98 | 1009.2 |
| 20260506012504 | 44 | 346 | 0.0 | 1.0 | 0.00 | 0.09 | 0.00 | 98 | 1009.1 |
| 20260506012005 | 44 | 347 | 0.0 | 1.0 | 0.00 | 0.09 | 0.00 | 98 | 1009.3 |
| 20260506011505 | 44 | 347 | 0.0 | 1.0 | 0.00 | 0.09 | 0.00 | 98 | 1009.4 |
| 20260506011005 | 44 | 347 | 0.0 | 1.0 | 0.00 | 0.09 | 0.00 | 98 | 1009.6 |
| 20260506010506 | 45 | 347 | 0.0 | 2.0 | 0.00 | 0.09 | 0.00 | 98 | 1009.4 |
| 20260506010004 | 45 | 347 | 0.0 | 2.0 | 0.00 | 0.09 | 0.00 | 98 | 1009.4 |
| 20260506005505 | 45 | 347 | 0.0 | 2.0 | 0.00 | 0.09 | 0.00 | 98 | 1009.4 |
| 20260506005006 | 45 | 349 | 0.0 | 1.0 | 0.00 | 0.09 | 0.00 | 98 | 1009.6 |
| 20260506004505 | 45 | 0 | 0.0 | 0.0 | 0.00 | 0.09 | 0.00 | 98 | 1009.5 |
| 20260506004004 | 45 | 0 | 0.0 | 0.0 | 0.00 | 0.09 | 0.00 | 98 | 1009.4 |
| 20260506003505 | 45 | 0 | 0.0 | 0.0 | 0.00 | 0.09 | 0.00 | 98 | 1009.5 |
| 20260506003004 | 45 | 0 | 0.0 | 0.0 | 0.00 | 0.09 | 0.00 | 98 | 1009.5 |
| 20260506002505 | 45 | 0 | 0.0 | 0.0 | 0.00 | 0.09 | 0.00 | 98 | 1009.6 |
| 20260506002005 | 45 | 0 | 0.0 | 0.0 | 0.00 | 0.09 | 0.00 | 98 | 1009.6 |
| 20260506001505 | 45 | 0 | 0.0 | 0.0 | 0.00 | 0.09 | 0.00 | 98 | 1009.5 |
| 20260506001025 | 46 | 0 | 0.0 | 0.0 | 0.00 | 0.09 | 0.00 | 98 | 1009.6 |
| 20260506000505 | 46 | 0 | 0.0 | 0.0 | 0.00 | 0.09 | 0.00 | 98 | 1009.6 |
| 20260506000004 | 46 | 0 | 0.0 | 0.0 | 0.00 | 0.09 | 0.00 | 98 | 1009.7 |
| 20260505235525 | 46 | 0 | 0.0 | 0.0 | 0.00 | 0.09 | 0.00 | 98 | 1009.6 |
| 20260505235005 | 46 | 0 | 0.0 | 0.0 | 0.00 | 0.09 | 0.00 | 98 | 1009.6 |
| 20260505234504 | 46 | 0 | 0.0 | 0.0 | 0.00 | 0.09 | 0.00 | 98 | 1009.6 |
| 20260505234004 | 46 | 0 | 0.0 | 0.0 | 0.00 | 0.09 | 0.00 | 98 | 1009.7 |
| 20260505233504 | 46 | 0 | 0.0 | 0.0 | 0.00 | 0.09 | 0.00 | 98 | 1009.8 |
| 20260505233004 | 46 | 0 | 0.0 | 0.0 | 0.00 | 0.09 | 0.00 | 98 | 1009.7 |
| 20260505232505 | 46 | 0 | 0.0 | 0.0 | 0.00 | 0.09 | 0.00 | 98 | 1009.6 |
| 20260505232005 | 46 | 349 | 0.0 | 1.0 | 0.00 | 0.09 | 0.00 | 98 | 1009.8 |
| 20260505231504 | 46 | 349 | 0.0 | 1.0 | 0.00 | 0.09 | 0.00 | 98 | 1009.9 |
| 20260505231004 | 46 | 0 | 0.0 | 0.0 | 0.00 | 0.09 | 0.00 | 98 | 1009.9 |
| 20260505230505 | 46 | 0 | 0.0 | 0.0 | 0.00 | 0.09 | 0.00 | 98 | 1009.8 |
| 20260505230004 | 46 | 0 | 0.0 | 0.0 | 0.00 | 0.09 | 0.00 | 98 | 1009.8 |
| 20260505225504 | 46 | 0 | 0.0 | 0.0 | 0.00 | 0.09 | 0.00 | 98 | 1009.8 |
| 20260505225004 | 46 | 0 | 0.0 | 0.0 | 0.00 | 0.09 | 0.00 | 98 | 1009.9 |
| 20260505224526 | 46 | 0 | 0.0 | 0.0 | 0.00 | 0.09 | 0.00 | 98 | 1010.1 |
| 20260505224005 | 46 | 0 | 0.0 | 0.0 | 0.00 | 0.09 | 0.00 | 98 | 1010.0 |
| 20260505223505 | 46 | 0 | 0.0 | 0.0 | 0.00 | 0.09 | 0.00 | 98 | 1010.0 |
| 20260505223004 | 46 | 0 | 0.0 | 0.0 | 0.00 | 0.09 | 0.00 | 98 | 1010.2 |
| 20260505222504 | 46 | 0 | 0.0 | 0.0 | 0.00 | 0.09 | 0.00 | 98 | 1010.0 |
| 20260505222006 | 46 | 0 | 0.0 | 0.0 | 0.00 | 0.09 | 0.00 | 98 | 1010.1 |
| 20260505221504 | 46 | 0 | 0.0 | 0.0 | 0.00 | 0.09 | 0.00 | 98 | 1010.1 |
| 20260505221004 | 45 | 0 | 0.0 | 0.0 | 0.00 | 0.09 | 0.00 | 98 | 1010.2 |
| 20260505220505 | 45 | 0 | 0.0 | 0.0 | 0.00 | 0.09 | 0.00 | 98 | 1010.0 |
| 20260505220028 | 45 | 349 | 0.0 | 1.0 | 0.00 | 0.09 | 0.00 | 98 | 1010.0 |
| 20260505215504 | 46 | 349 | 0.0 | 1.0 | 0.00 | 0.09 | 0.09 | 98 | 1009.9 |
| 20260505215004 | 46 | 349 | 0.0 | 1.0 | 0.00 | 0.09 | 0.09 | 98 | 1009.8 |
| 20260505214504 | 46 | 0 | 0.0 | 0.0 | 0.00 | 0.09 | 0.09 | 98 | 1009.9 |
| 20260505214004 | 46 | 0 | 0.0 | 0.0 | 0.00 | 0.09 | 0.09 | 98 | 1010.0 |
| 20260505213526 | 46 | 0 | 0.0 | 0.0 | 0.00 | 0.09 | 0.09 | 98 | 1009.8 |
| 20260505213005 | 46 | 0 | 0.0 | 0.0 | 0.00 | 0.09 | 0.09 | 98 | 1009.9 |
| 20260505212505 | 46 | 0 | 0.0 | 0.0 | 0.00 | 0.09 | 0.09 | 97 | 1010.1 |
| 20260505212025 | 46 | 0 | 0.0 | 0.0 | 0.00 | 0.09 | 0.09 | 97 | 1010.1 |
| 20260505211504 | 46 | 0 | 0.0 | 0.0 | 0.00 | 0.09 | 0.09 | 97 | 1010.0 |
| 20260505211005 | 46 | 0 | 0.0 | 0.0 | 0.00 | 0.09 | 0.09 | 97 | 1009.9 |
| 20260505210505 | 46 | 0 | 0.0 | 0.0 | 0.00 | 0.09 | 0.09 | 97 | 1010.1 |
| 20260505210006 | 46 | 0 | 0.0 | 0.0 | 0.00 | 0.09 | 0.09 | 97 | 1010.0 |
| 20260505205505 | 46 | 0 | 0.0 | 0.0 | 0.00 | 0.09 | 0.09 | 97 | 1010.0 |
| 20260505205026 | 47 | 0 | 0.0 | 0.0 | 0.00 | 0.09 | 0.09 | 97 | 1009.9 |
| 20260505204504 | 47 | 0 | 0.0 | 0.0 | 0.00 | 0.09 | 0.09 | 97 | 1010.0 |
| 20260505204006 | 47 | 0 | 0.0 | 0.0 | 0.00 | 0.09 | 0.09 | 97 | 1009.9 |
| 20260505203504 | 48 | 0 | 0.0 | 0.0 | 0.00 | 0.09 | 0.09 | 97 | 1009.9 |
| 20260505203004 | 48 | 0 | 0.0 | 0.0 | 0.00 | 0.09 | 0.09 | 97 | 1009.9 |
| 20260505202504 | 48 | 0 | 0.0 | 0.0 | 0.00 | 0.09 | 0.09 | 97 | 1009.9 |
| 20260505202006 | 48 | 0 | 0.0 | 0.0 | 0.00 | 0.09 | 0.09 | 96 | 1009.9 |
| 20260505201505 | 48 | 349 | 0.0 | 1.0 | 0.00 | 0.09 | 0.09 | 96 | 1010.1 |
| 20260505201004 | 48 | 349 | 0.0 | 1.0 | 0.00 | 0.09 | 0.09 | 96 | 1010.1 |
| 20260505200504 | 49 | 0 | 0.0 | 0.0 | 0.00 | 0.09 | 0.09 | 96 | 1010.0 |
| 20260505200004 | 49 | 0 | 0.0 | 0.0 | 0.00 | 0.09 | 0.09 | 96 | 1009.7 |
| 20260505195505 | 49 | 350 | 0.0 | 1.0 | 0.00 | 0.09 | 0.09 | 96 | 1009.9 |
| 20260505195005 | 49 | 350 | 0.0 | 2.0 | 0.00 | 0.09 | 0.09 | 96 | 1009.8 |
| 20260505194505 | 49 | 350 | 0.0 | 2.0 | 0.00 | 0.09 | 0.09 | 96 | 1009.8 |
| 20260505194004 | 49 | 0 | 0.0 | 0.0 | 0.00 | 0.09 | 0.09 | 96 | 1009.9 |
| 20260505193525 | 50 | 351 | 0.0 | 1.0 | 0.00 | 0.09 | 0.09 | 96 | 1009.9 |
| 20260505193004 | 50 | 351 | 0.0 | 1.0 | 0.00 | 0.09 | 0.09 | 96 | 1009.9 |
| 20260505192505 | 50 | 352 | 0.0 | 1.0 | 0.00 | 0.09 | 0.09 | 96 | 1010.0 |
| 20260505192005 | 50 | 352 | 0.0 | 1.0 | 0.00 | 0.09 | 0.09 | 96 | 1009.8 |
| 20260505191504 | 50 | 351 | 0.0 | 1.0 | 0.00 | 0.09 | 0.09 | 96 | 1009.8 |
| 20260505191004 | 50 | 351 | 0.0 | 1.0 | 0.00 | 0.09 | 0.09 | 96 | 1009.8 |
| 20260505190505 | 50 | 0 | 0.0 | 0.0 | 0.00 | 0.09 | 0.09 | 96 | 1009.6 |
| 20260505190005 | 50 | 0 | 0.0 | 0.0 | 0.00 | 0.09 | 0.09 | 96 | 1009.7 |
| 20260505185525 | 50 | 0 | 0.0 | 0.0 | 0.00 | 0.09 | 0.09 | 96 | 1009.8 |
| 20260505185004 | 50 | 0 | 0.0 | 0.0 | 0.00 | 0.09 | 0.09 | 95 | 1009.8 |
| 20260505184526 | 50 | 0 | 0.0 | 0.0 | 0.00 | 0.09 | 0.09 | 95 | 1009.7 |
| 20260505184005 | 50 | 351 | 0.0 | 1.0 | 0.00 | 0.09 | 0.09 | 95 | 1009.7 |
| 20260505183505 | 50 | 351 | 0.0 | 1.0 | 0.00 | 0.09 | 0.09 | 95 | 1009.8 |
| 20260505183005 | 50 | 352 | 0.0 | 1.0 | 0.00 | 0.09 | 0.09 | 95 | 1009.9 |
| 20260505182505 | 50 | 354 | 0.0 | 1.0 | 0.00 | 0.09 | 0.09 | 95 | 1009.7 |
| 20260505182005 | 50 | 353 | 0.0 | 3.0 | 0.00 | 0.09 | 0.09 | 95 | 1009.6 |
| 20260505181504 | 50 | 353 | 0.0 | 3.0 | 0.00 | 0.09 | 0.09 | 95 | 1009.8 |
| 20260505181005 | 50 | 0 | 0.0 | 0.0 | 0.00 | 0.09 | 0.09 | 94 | 1009.5 |
| 20260505180504 | 50 | 356 | 0.0 | 1.0 | 0.00 | 0.09 | 0.09 | 94 | 1009.6 |
| 20260505180026 | 50 | 356 | 0.0 | 2.0 | 0.00 | 0.09 | 0.09 | 93 | 1009.6 |
| 20260505175505 | 50 | 356 | 0.0 | 2.0 | 0.00 | 0.09 | 0.09 | 93 | 1009.5 |
| 20260505175004 | 51 | 352 | 0.0 | 2.0 | 0.00 | 0.09 | 0.09 | 93 | 1009.6 |
| 20260505174504 | 51 | 353 | 0.0 | 2.0 | 0.00 | 0.09 | 0.09 | 93 | 1009.5 |
| 20260505174004 | 51 | 354 | 0.0 | 2.0 | 0.00 | 0.09 | 0.09 | 93 | 1009.6 |
| 20260505173504 | 51 | 354 | 0.0 | 1.0 | 0.00 | 0.09 | 0.09 | 92 | 1009.6 |
| 20260505173005 | 51 | 354 | 0.0 | 1.0 | 0.00 | 0.09 | 0.09 | 92 | 1009.6 |
| 20260505172504 | 51 | 355 | 0.0 | 1.0 | 0.00 | 0.09 | 0.09 | 93 | 1009.7 |
| 20260505172005 | 51 | 355 | 0.0 | 1.0 | 0.00 | 0.09 | 0.09 | 93 | 1009.7 |
| 20260505171506 | 51 | 355 | 0.0 | 1.0 | 0.00 | 0.09 | 0.09 | 92 | 1009.8 |
| 20260505171025 | 50 | 356 | 0.0 | 2.0 | 0.00 | 0.09 | 0.09 | 93 | 1009.8 |
| 20260505170505 | 50 | 357 | 0.0 | 2.0 | 0.00 | 0.09 | 0.09 | 93 | 1009.7 |
| 20260505170004 | 50 | 1 | 0.0 | 1.0 | 0.00 | 0.09 | 0.09 | 93 | 1009.8 |
| 20260505165504 | 50 | 1 | 0.0 | 1.0 | 0.00 | 0.09 | 0.09 | 92 | 1009.8 |
| 20260505165005 | 50 | 2 | 0.0 | 2.0 | 0.00 | 0.09 | 0.09 | 92 | 1009.7 |
| 20260505164505 | 50 | 4 | 0.0 | 3.0 | 0.00 | 0.09 | 0.09 | 92 | 1009.7 |
| 20260505164005 | 50 | 3 | 1.0 | 3.0 | 0.00 | 0.09 | 0.09 | 92 | 1009.7 |
| 20260505163505 | 51 | 360 | 1.0 | 2.0 | 0.00 | 0.09 | 0.09 | 93 | 1009.8 |
| 20260505163025 | 51 | 1 | 1.0 | 3.0 | 0.00 | 0.09 | 0.09 | 93 | 1009.8 |
| 20260505162504 | 51 | 2 | 1.0 | 3.0 | 0.00 | 0.09 | 0.09 | 92 | 1009.8 |
| 20260505162004 | 51 | 3 | 0.0 | 3.0 | 0.00 | 0.09 | 0.09 | 92 | 1009.8 |
| 20260505161505 | 51 | 4 | 0.0 | 1.0 | 0.00 | 0.09 | 0.09 | 93 | 1009.9 |
| 20260505161005 | 51 | 3 | 0.0 | 1.0 | 0.00 | 0.09 | 0.09 | 93 | 1009.7 |
| 20260505160526 | 51 | 3 | 0.0 | 2.0 | 0.00 | 0.09 | 0.09 | 92 | 1009.8 |
| 20260505153004 | 51 | 348 | 0.0 | 2.0 | 0.00 | 0.09 | 0.09 | 92 | 1009.9 |
| 20260505152505 | 51 | 348 | 0.0 | 1.0 | 0.01 | 0.09 | 0.09 | 93 | 1010.1 |
| 20260505152004 | 51 | 347 | 0.0 | 1.0 | 0.01 | 0.09 | 0.09 | 92 | 1010.1 |
| 20260505151504 | 51 | 352 | 0.0 | 2.0 | 0.01 | 0.09 | 0.09 | 94 | 1010.1 |
| 20260505151005 | 50 | 353 | 0.0 | 2.0 | 0.01 | 0.09 | 0.09 | 93 | 1010.1 |
| 20260505150525 | 50 | 356 | 0.0 | 2.0 | 0.01 | 0.09 | 0.09 | 93 | 1010.1 |
| 20260505140504 | 51 | 347 | 0.0 | 2.0 | 0.00 | 0.08 | 0.08 | 93 | 1010.5 |
| 20260505125004 | 50 | 275 | 0.0 | 1.0 | 0.04 | 0.07 | 0.07 | 93 | 1011.0 |
| 20260505124504 | 50 | 275 | 0.0 | 1.0 | 0.05 | 0.07 | 0.07 | 93 | 1011.0 |
| 20260505124005 | 50 | 0 | 0.0 | 0.0 | 0.05 | 0.07 | 0.07 | 94 | 1010.9 |
| 20260505123505 | 50 | 0 | 0.0 | 0.0 | 0.05 | 0.07 | 0.07 | 93 | 1011.0 |
| 20260505123004 | 50 | 275 | 0.0 | 2.0 | 0.05 | 0.06 | 0.06 | 93 | 1011.0 |
| 20260505122525 | 50 | 275 | 0.0 | 2.0 | 0.05 | 0.06 | 0.06 | 92 | 1011.1 |
| 20260505122005 | 50 | 275 | 0.0 | 1.0 | 0.05 | 0.06 | 0.06 | 92 | 1011.2 |
| 20260505121504 | 50 | 275 | 0.0 | 2.0 | 0.04 | 0.05 | 0.05 | 91 | 1011.1 |
| 20260505121004 | 50 | 275 | 0.0 | 2.0 | 0.04 | 0.05 | 0.05 | 91 | 1011.2 |
| 20260505120505 | 50 | 276 | 0.0 | 2.0 | 0.04 | 0.05 | 0.05 | 91 | 1011.2 |
| 20260505120005 | 50 | 274 | 0.0 | 2.0 | 0.04 | 0.04 | 0.04 | 89 | 1011.3 |
| 20260505115505 | 50 | 268 | 0.0 | 2.0 | 0.04 | 0.04 | 0.04 | 90 | 1011.2 |
| 20260505115004 | 50 | 265 | 0.0 | 2.0 | 0.04 | 0.04 | 0.04 | 89 | 1011.0 |
| 20260505114504 | 51 | 269 | 0.0 | 3.0 | 0.03 | 0.03 | 0.03 | 88 | 1011.0 |
| 20260505114025 | 51 | 274 | 0.0 | 3.0 | 0.02 | 0.02 | 0.02 | 85 | 1011.0 |
| 20260505113504 | 52 | 280 | 1.0 | 3.0 | 0.02 | 0.02 | 0.02 | 85 | 1010.9 |
| 20260505113005 | 52 | 305 | 1.0 | 4.0 | 0.02 | 0.02 | 0.02 | 84 | 1010.8 |
| 20260505112504 | 53 | 345 | 1.0 | 4.0 | 0.01 | 0.01 | 0.01 | 84 | 1010.9 |
| 20260505112005 | 53 | 7 | 0.0 | 3.0 | 0.01 | 0.01 | 0.01 | 82 | 1010.8 |
| 20260505111505 | 54 | 338 | 1.0 | 4.0 | 0.01 | 0.01 | 0.01 | 84 | 1010.8 |
| 20260505111004 | 54 | 317 | 1.0 | 4.0 | 0.00 | 0.00 | 0.00 | 82 | 1010.8 |
| 20260505110504 | 55 | 325 | 1.0 | 4.0 | 0.00 | 0.00 | 0.00 | 78 | 1010.8 |
| 20260505102004 | 60 | 289 | 1.0 | 6.0 | 0.00 | 0.00 | 0.00 | 57 | 1010.5 |
| 20260505101505 | 60 | 278 | 1.0 | 6.0 | 0.00 | 0.00 | 0.00 | 55 | 1010.4 |
| 20260505101004 | 60 | 277 | 1.0 | 3.0 | 0.00 | 0.00 | 0.00 | 55 | 1010.4 |
| 20260505100505 | 61 | 278 | 1.0 | 3.0 | 0.00 | 0.00 | 0.00 | 54 | 1010.4 |
| 20260505100004 | 61 | 285 | 1.0 | 4.0 | 0.00 | 0.00 | 0.00 | 54 | 1010.4 |
| 20260505095504 | 62 | 339 | 1.0 | 4.0 | 0.00 | 0.00 | 0.00 | 55 | 1010.6 |
| 20260505095004 | 62 | 320 | 1.0 | 4.0 | 0.00 | 0.00 | 0.00 | 54 | 1010.7 |
| 20260505094505 | 62 | 214 | 1.0 | 4.0 | 0.00 | 0.00 | 0.00 | 53 | 1010.6 |
| 20260505094005 | 61 | 234 | 2.0 | 4.0 | 0.00 | 0.00 | 0.00 | 53 | 1010.6 |
| 20260505093505 | 61 | 277 | 1.0 | 4.0 | 0.00 | 0.00 | 0.00 | 52 | 1010.7 |
| 20260505093005 | 62 | 283 | 1.0 | 4.0 | 0.00 | 0.00 | 0.00 | 52 | 1010.8 |
| 20260505092505 | 62 | 38 | 1.0 | 3.0 | 0.00 | 0.00 | 0.00 | 53 | 1010.6 |
| 20260505092004 | 62 | 55 | 1.0 | 2.0 | 0.00 | 0.00 | 0.00 | 52 | 1010.8 |
| 20260505091504 | 61 | 41 | 1.0 | 3.0 | 0.00 | 0.00 | 0.00 | 51 | 1010.7 |
| 20260505091004 | 61 | 301 | 1.0 | 3.0 | 0.00 | 0.00 | 0.00 | 57 | 1010.8 |
| 20260505090505 | 60 | 250 | 1.0 | 3.0 | 0.00 | 0.00 | 0.00 | 52 | 1010.7 |
| 20260505090005 | 60 | 159 | 1.0 | 4.0 | 0.00 | 0.00 | 0.00 | 47 | 1010.8 |
| 20260505085504 | 60 | 290 | 1.0 | 4.0 | 0.00 | 0.00 | 0.00 | 51 | 1010.7 |
| 20260505085025 | 59 | 304 | 1.0 | 4.0 | 0.00 | 0.00 | 0.00 | 54 | 1010.6 |
| 20260505084526 | 59 | 305 | 1.0 | 4.0 | 0.00 | 0.00 | 0.00 | 56 | 1010.8 |
| 20260505084025 | 58 | 294 | 1.0 | 3.0 | 0.00 | 0.00 | 0.00 | 56 | 1010.9 |
| 20260505083504 | 58 | 284 | 2.0 | 3.0 | 0.00 | 0.00 | 0.00 | 58 | 1010.7 |
| 20260505083004 | 58 | 279 | 1.0 | 3.0 | 0.00 | 0.00 | 0.00 | 62 | 1010.7 |
| 20260505082505 | 58 | 277 | 1.0 | 3.0 | 0.00 | 0.00 | 0.00 | 59 | 1010.6 |
| 20260505082025 | 58 | 281 | 1.0 | 3.0 | 0.00 | 0.00 | 0.00 | 58 | 1010.7 |
| 20260505081525 | 58 | 284 | 1.0 | 3.0 | 0.00 | 0.00 | 0.00 | 60 | 1010.5 |
| 20260505081005 | 58 | 302 | 1.0 | 3.0 | 0.00 | 0.00 | 0.00 | 66 | 1010.8 |